Regional Weather Roundup
Issued by NWS

Home | Current Version | Previous Version | Text Only | Print | Product List | Glossary On
Versions: 1 2 3 4 5 6 7 8 9 10 11 12 13 14 15 16 17 18 19 20 21 22 23 24 25 26 27 28 29 30 31 32 33 34 35 36 37 38 39 40 41 42 43 44 45 46 47 48 49 50
000
ASHW40 PHFO 281812
RWRHI

WEATHER ROUNDUP FOR HAWAII
NATIONAL WEATHER SERVICE HONOLULU HI
800 AM HST FRI APR 28 2017

THIS IS AN AUTOMATED REPORT THAT HAS NOT BEEN QUALITY CONTROLLED.

NOTE..."FAIR" INDICATES FEW OR NO CLOUDS BELOW 12,000 FEET WITH NO
SIGNIFICANT WEATHER AND/OR OBSTRUCTIONS TO VISIBILITY.

* - THESE SITES REPORT LIMITED FIELDS

HIZ001>004-281900-
KAUAI-NIIHAU-

CITY           SKY/WX    TMP DP  RH WIND       PRES   REMARKS
LIHUE APT      MOSUNNY   76  68  76 N10       30.01R
PORT ALLEN*      N/A     75 N/A N/A N3          N/A
POIPU*           N/A     73 N/A N/A NW1G7       N/A
PRINCEVILLE*     N/A     73 N/A N/A SW2         N/A
KOKOLE POINT*  NOT AVBL
MOLOAA DAIRY*    N/A     72  70  94 W3          N/A
WAIMEA HTS*    NOT AVBL
PUU OPAE*      NOT AVBL
PUU LUA*       NOT AVBL
MAKAHA RIDGE*  NOT AVBL
$$

HIZ005>011-281900-
OAHU-

CITY           SKY/WX    TMP DP  RH WIND       PRES   REMARKS
HONOLULU       MOSUNNY   77  65  66 VRB3      29.98R
KALAELOA       MOSUNNY   80  66  62 VRB5      30.00R
KANEOHE MCB    NOT AVBL
WHEELER FIELD  FAIR      73  67  81 NW7       29.99
BELLOWS*       NOT AVBL
KAHUKU*        NOT AVBL
WHEELER*       NOT AVBL
WAIANAE HARBOR NOT AVBL
DILLINGHAM*      N/A     68  59  73 SW1         N/A
KAHUKU TRN*      N/A     68  68 100 CALM        N/A
KAWAILOA*        N/A     75  66  73 NW2         N/A
KII*             N/A     72  68  88 W3          N/A
MAKUA RANGE*     N/A    N/A N/A N/A W5G10       N/A
OAHU FOREST NW NOT AVBL
SCHOFIELD BRK*   N/A     70  63  78 MISG        N/A
SCHOFIELD S*   NOT AVBL
WAIANAE VLY*   NOT AVBL
KUAOKALA*      NOT AVBL
HONOULIUULI*   NOT AVBL
MOKUOLOE IS*   NOT AVBL
PALEHUA*       NOT AVBL
WAIAWA PHB*    NOT AVBL
$$

HIZ012>013-281900-
MOLOKAI-

CITY           SKY/WX    TMP DP  RH WIND       PRES   REMARKS
MOLOKAI AIRPT  SUNNY     77  69  76 CALM      30.00R
KALAUPAPA      NOT AVBL
MAKAPULAPAI*   NOT AVBL
MOLOKAI 1*     NOT AVBL
PUU ALII*      NOT AVBL
$$

HIZ016-281900-
KAHOOLAWE-

CITY           SKY/WX    TMP DP  RH WIND       PRES   REMARKS
KAHOOLAWE*     NOT AVBL
HAKIOAWA*      NOT AVBL
HONOKANAIA*      N/A     73  65  77 NE3G10    29.93R
KANELOA*         N/A     73  66  78 NE9G17    30.04R
KEALIALALO*    NOT AVBL
LUA MAKIKA*    NOT AVBL
$$

HIZ014>015-281900-
LANAI-

CITY           SKY/WX    TMP DP  RH WIND       PRES   REMARKS
LANAI CITY     FAIR      71  67  87 VRB3      30.05S
LANAI 1*       NOT AVBL
$$

HIZ017>028-281900-
MAUI-

CITY           SKY/WX    TMP DP  RH WIND       PRES   REMARKS
KAHULUI        PTSUNNY   75  67  76 CALM      29.99R
KAPALUA-W MAUI NOT AVBL
HANA AIRPORT   NOT AVBL
HANA*            N/A     72 N/A N/A S5G10       N/A
HALEAKALA SUMM   N/A     43  43 100 SE14        N/A
MAALAEA BAY*   NOT AVBL
HALEAKALA*     NOT AVBL
KAUPO GAP*     NOT AVBL
KULA 1*          N/A     53  51  92 W3          N/A
$$

HIZ023>026-281900-
BIG ISLAND OF HAWAII COAST AND LOWER SLOPES-

CITY           SKY/WX    TMP DP  RH WIND       PRES   REMARKS
KAILUA KONA    MOSUNNY   78  65  63 S9        29.97R
HILO           PTSUNNY   72  67  84 SW8       30.01R
HONOKAA*         N/A     73 N/A N/A VRB1        N/A
KAWAIHAE MWT*    N/A     79 N/A N/A NW7         N/A
KAWAIHAE*      NOT AVBL
SOUTH POINT*     N/A     66 N/A N/A NW9         N/A
UPOLU AIRPORT* NOT AVBL
KAMUELA*       CLEAR     72  59  64 NE5       30.09R
HAKALAU*         N/A     57  50  77 E3          N/A
KALOKO-HONOKO* NOT AVBL
PALI 2*          N/A     63  59  88 W7          N/A
KEALAKOMO*       N/A     73  68  83 SW5         N/A
KAUPULEHU*     NOT AVBL
KAPAPALA*        N/A     62  62  98 NW3         N/A
LOWER KAHUKU*  NOT AVBL
PUHE CS*       NOT AVBL
PUHO CS*       NOT AVBL
PTA KEAMUKU*     N/A     68  54  60 CALM        N/A
WAIKOLOA*      NOT AVBL
$$

HIZ027>028-281900-
BIG ISLAND OF HAWAII INTERIOR AND SUMMMITS-

CITY           SKY/WX    TMP DP  RH WIND       PRES   REMARKS
BRADSHAW FIELD MOSUNNY   57  45  65 SW5       30.29R
MK VISITOR CEN   N/A     45  41  87 SE3         N/A
MAUNA KEA*       N/A     36 -11  13 SW20        N/A  WCI  25
MAUNA LOA*       N/A     50 -11   7 MISG        N/A
MAUNA LOA 1*   NOT AVBL
PTA KIPUKA*      N/A     61  50  67 W3          N/A
PTA RANGE 17*    N/A     46  34  61 S5          N/A
PTA WEST*        N/A     66  50  55 SW2         N/A
NENE CABIN*    NOT AVBL
AHUMOA*        NOT AVBL
PTA PORTABLE*  NOT AVBL
PUU MALI*        N/A     57  50  77 N5          N/A
$$

HIC003-281900-
NORTHWEST ISLANDS-

CITY           SKY/WX    TMP DP  RH WIND       PRES   REMARKS
MIDWAY ISLAND    N/A     63  54  72 NE12      30.37S
MIDWAY NOS*    NOT AVBL
FRENCH FRIGATE NOT AVBL
$$

PHZ110>124-180-281900-
BUOY REPORTS

STATION/POSITION TIME  TEMP    WIND        PRES    WAVE   SWELL
                       AIR SEA DIR/SP/G            HT/PER HT/DIR
                 (UTC) (F)     (DEG/KT/KT) (MB)    (FT/S) (FT/D)
BUOY 51001       1750   71 77  360/ 21/ 27 1018.8R  10/ 8   2/180
BUOY 51101       1750   72 77  350/ 23/ 27 1019.0R   9/ 8   3/350
BUOY 51100       NOT AVBL
BUOY 51002       1750   77 78   50/ 16/ 19 1015.0R   6/ 8   5/100
BUOY 51003       1750   77 79   10/  6/  8 1015.7R   5/ 9   5/ 50
BUOY 51004       1650      77   90/ 14/ 17 1014.4    7/ 8   5/ 90
BARBERS PT BUOY  NOT AVBL
WAIMEA BAY BUOY  1732      77                N/A     3/11   2/320
KAILUA BAY BUOY  1734      78                N/A     4/ 8   2/140
LANAI BUOY       1745      79                N/A     4/13   3/200
BARBERS PT 2     NOT AVBL
PAUWELA MAUI     1739      77                N/A     5/ 8   2/320
HILO             1742      78                N/A     5/ 7   2/ 30
KANEOHE BAY BUOY 1755      78                N/A     4/ 8   2/360
HANALEI KAUAI    1752      79                N/A     4/11   2/320
KAHULUI HARBOR   1748          150/  2/  4   N/A
HONOLULU HARBOR  1748   77 79   60/  1/  3 1016.1R
KILO NALU        NOT AVBL
HILO HARBOR      1748           30/  2/  6   N/A
MOKUOLOE         1736   76 80     CALM     1015.3R
NAWILIWILI       1748   72     250/  4/  4 1015.8R
WHOTS BUOY       NOT AVBL
BUOY 51028       NOT AVBL
$$

......................KEY........................................
  SKY/WX - SKY CONDITIONS/PRESENT WEATHER
  TMP    - TEMPERATURE IN FAHRENHEIT
  DWPT   - DEWPOINT IN FAHRENHEIT
  RH     - RELATIVE HUMIDITY IN PERCENT
  WIND   - DIRECTION AND SPEED /MPH FOR ISLANDS...KTS FOR BUOYS/
  PRES   - MEAN SEA LEVEL PRESSURE IN INCHES OF HG
  VSB    - VISIBILITY IN MILES
  HX     - HEAT INDEX
  WCI    - WIND CHILL INDEX
  VRB    - VARIABLE WIND DIRECTION
  N/A    - NOT AVAILABLE



USA.gov is the U.S. government's official web portal to all federal, state and local government web resources and services.